Overview Statistics Trail Chart Weather Telemetry Raw packets
 

This is the latest recevied weather packets stored in our database for station/object KD0SBN. If no packets are shown the sender has not sent any weather packets the latest 10 day(s).

<< 111 112 113 114 >>
Time Temp. Humidity Pressure Rain* Wind** Luminosity Snow
1787723632 18.33° C 83% 1025.7 hPa 0 mm - - -
1787723329 18.33° C 83% 1025.8 hPa 0 mm - - -
1787723029 18.33° C 82% 1025.6 hPa 0 mm - - -
1787722723 18.89° C 82% 1025.5 hPa 0 mm - - -
1787722418 18.89° C 81% 1025.7 hPa 0 mm - - -
1787722113 18.89° C 79% 1026 hPa 0 mm - - -
1787721810 19.44° C 76% 1025.6 hPa 0 mm - - -
1787721506 20° C 67% 1025.5 hPa 0 mm - - -
1787721205 20.56° C 64% 1025.6 hPa 0 mm - - -
1787720900 21.67° C 61% 1025.6 hPa 0 mm - - -
1787720600 21.11° C 61% 1025.5 hPa 0 mm - - -
1787720294 21.11° C 63% 1025.5 hPa 0 mm - - -
1787719993 21.67° C 63% 1025.3 hPa 0 mm - - -
1787719689 21.67° C 61% 1025.5 hPa 0 mm - - -
1787719383 21.67° C 63% 1025.3 hPa 0 mm - - -
1787719079 21.67° C 64% 1025.5 hPa 0 mm - - -
1787718774 22.22° C 63% 1025.6 hPa 0 mm - - -
1787718470 22.22° C 62% 1025.5 hPa 0 mm - - -
1787718165 22.22° C 61% 1025.5 hPa 0 mm - - -
1787717862 22.22° C 61% 1025.7 hPa 0 mm - - -
1787717557 22.22° C 61% 1025.6 hPa 0 mm - - -
1787717252 22.22° C 62% 1025.6 hPa 0 mm - - -

* Rain latest hour (hover to see other rain measurements)
** Current wind speed in m/s (hover to see current wind gust speed)